sat.trackr.live / text

‹ back to catalog

PRAETORIAN SDA_613

NORAD 65576 · 2025-203M

PAYLOAD ACTIVE UNKNOWN

§ Identity

Operator
Country
US
Launch date
2025-09-10
Launch site
AFWTR
Launch vehicle
Mass (kg)
RCS (m²)

Purposes: military

External: N2YO · Heavens-Above · Gunter

§ Orbital elements

Epoch: 2026-09-20T01:39:41.823648Z

Period
104.14 min
Inclination
81.2966°
Eccentricity
0.0004676
Mean motion
13.82772758 rev/d
Perigee alt
950.6 km
Apogee alt
957.5 km
Semi-major
7,332.2 km
B*
3.8976e-5
RAAN
283.2422°
Arg perigee
302.4012°
Mean anomaly
57.6691°
Rev number
5,179

§ Raw data

PRAETORIAN SDA_6131 65576U 25203M   26263.06923407  .00000054  00000+0  38976-4 0  99962 65576  81.2966 283.2422 0004676 302.4012  57.6691 13.82772758 51797

JSON: /api/v1/satellites/65576 · /tle

For live sub-satellite position, see the globe view (requires WebGL).

§ Visibility from observer

Set your observer location to see the next 7 days of passes ≥ 10°. The values pass through the URL so the page stays shareable.

No JS? Fill the form by hand. The geolocation button needs JavaScript.

§ Radio — SatNOGS DB

ModeDescriptionDownlinkUplink
UNKNOWN S-band telemetry 2.226 GHz

1 transmitter · refreshed weekly from db.satnogs.org